NOAA NWS Hourly Roundups by Site

Regional Weather Roundup for State College, PA

To Select Another Site Choose from List

Select Site:  

477
ASUS41 KCTP 192110
RWRCTP

REGIONAL WEATHER ROUNDUP
NATIONAL WEATHER SERVICE STATE COLLEGE PA
500 PM EDT MON APR 19 2021

Note: "fair" indicates few or no clouds below 12,000 feet with no
significant weather and/or obstructions to visibility.

* = STATION THAT DOES NOT REPORT PRECIPITATION /E.G. RAIN...SNOW...ETC/
    THUNDER OR FOG.

PAZ002>004-007>009-013>016-020>023-029>032-192200-
WESTERN PENNSYLVANIA

CITY           SKY/WX    TMP DP  RH WIND       PRES   REMARKS
ERIE           PTSUNNY   61  32  33 W12G20    29.77S
MEADVILLE      PTSUNNY   60  31  33 SW12G21   29.78R
FRANKLIN       PTSUNNY   59  29  31 SW17G24   29.79S
NEW CASTLE     MOCLDY    64  32  30 W17       29.80S
BEAVER COUNTY  MOSUNNY   64  32  29 SW13G20   29.81R
BUTLER         MOSUNNY   62  31  31 W12G20    29.81S
PITTSBURGH INT PTSUNNY   64  32  30 W17       29.81R
PITTSBURGH     MOSUNNY   64  30  27 W9G16     29.80S
INDIANA*       PTSUNNY   61  32  33 W12G18    29.84F
LATROBE        MOSUNNY   63  28  27 SW12      29.82S
WASHINGTON CO* PTSUNNY   61  31  32 SW9G16    29.85S
$$

PAZ004>006-010>012-017>019-024>028-033>037-041-042-045-046-049>053-192200-
CENTRAL PENNSYLVANIA

CITY           SKY/WX    TMP DP  RH WIND       PRES   REMARKS
BRADFORD       CLOUDY    59  25  27 SW12G17   29.78S
ST MARYS       CLOUDY    55  28  35 SW6       29.82S
DUBOIS         PTSUNNY   61  27  27 SW14G21   29.79S
CLEARFIELD     CLOUDY    59  27  29 SW8       29.80R
JOHNSTOWN      PTSUNNY   59  26  28 W13G23    29.81R
SOMERSET       CLOUDY    55  28  35 W13G22    29.83R
ALTOONA        CLOUDY    63  26  24 NW7       29.81R
STATE COLLEGE  PTSUNNY   61  30  31 W7        29.80S
REEDSVILLE       N/A    N/A N/A N/A MISG        N/A
WELLSBORO      MOCLDY    57  27  30 SW8       29.77S
WILLIAMSPORT   MOSUNNY   60  38  43 CALM      29.79F
SELINSGROVE    MOSUNNY   62  36  37 SE3       29.80F
FT INDIANTOWN  PTSUNNY   65  37  35 N6        29.80S
CAPITAL CITY   PTSUNNY   68  38  33 W9G17     29.79S
HARRISBURG     PTSUNNY   66  37  34 CALM      29.79R
YORK           PTSUNNY   62  38  40 VRB5      29.81S
$$

PAZ038>040-043-044-047-048-054-055-060>062-067>071-192200-
EASTERN PENNSYLVANIA

CITY           SKY/WX    TMP DP  RH WIND       PRES   REMARKS
TOWANDA        PTCLDY    61  36  39 SE3       29.82F
SCRANTON       CLOUDY    57  40  52 CALM      29.81F
MOUNT POCONO   CLOUDY    51  38  60 NW9       29.81R
HAZLETON       FAIR      59  34  38 W6        29.83S
LEHIGHTON      MOCLDY    61  36  39 NW5       29.81S
ALLENTOWN      CLOUDY    63  37  38 N9        29.80R
QN CITY/ALNTWN MOCLDY    61  36  39 SW17G25   29.82R
QUAKERTOWN*    MOCLDY    61  41  48 S7        29.81R
PERKASIE*      MOCLDY    61  37  41 SW3       29.81S
DOYLESTOWN     CLOUDY    64  38  38 VRB6      29.79S
READING        PTSUNNY   59  45  59 S5        29.79R
LANCASTER      MOSUNNY   62  42  47 SW13      29.81R
COATESVILLE    PTCLDY    59  41  51 VRB7      29.83S
WEST CHESTER   CLOUDY    61  41  48 SW6       29.82S
POTTSTOWN      CLOUDY    61  39  44 SW7       29.82R
BLUE BELL        N/A    N/A N/A N/A MISG        N/A
NORTH PHILA    CLOUDY    63  40  42 SW13G18   29.83R
PHILADELPHIA   CLOUDY    61  41  47 S12       29.83R
$$



 

View Past Reports for State College, PA.

Products Courtesy of NOAA-NWS
NWS Information Parsing Script by Ken True at Saratoga Weather - Script by SE Lincoln Weather.